GW4085 Weather Reports


Display with metric or nautical units.
time (UTC)temp
F
wind
direction
speed
MPH
gust
MPH
rain 1hr
in
rain 24hr
in
rain mn
in
humidity
%
barometer
mb
20260508025045 51 171 0.0 0.0 0.00 0.00 0.00 81 1015.6
20260508024541 51 171 0.0 0.0 0.00 0.00 0.00 81 1015.5
20260508024039 51 171 0.0 0.0 0.00 0.00 0.00 81 1015.5
20260508023535 52 171 0.0 0.0 0.00 0.00 0.00 80 1015.4
20260508023032 52 171 0.0 0.0 0.00 0.00 0.00 79 1015.4
20260508022528 53 171 0.0 0.0 0.00 0.00 0.00 78 1015.1
20260508022025 53 171 0.0 0.0 0.00 0.00 0.00 77 1015.0
20260508021521 53 171 0.0 0.0 0.00 0.00 0.00 76 1014.8
20260508021017 53 171 0.0 0.0 0.00 0.00 0.00 76 1014.8
20260508020515 54 171 0.0 0.0 0.00 0.00 0.00 75 1014.9
20260508020012 54 171 0.0 0.0 0.00 0.00 0.00 73 1014.8
20260508015509 54 171 0.0 0.0 0.00 0.00 0.00 72 1014.7
20260508015006 55 171 0.0 0.0 0.00 0.00 0.00 71 1014.6
20260508014502 55 171 0.0 0.0 0.00 0.00 0.00 69 1014.7
20260508013958 56 171 0.0 0.0 0.00 0.00 0.00 67 1014.6
20260508013454 57 171 0.0 0.0 0.00 0.00 0.00 66 1014.6
20260508012952 57 171 0.0 0.0 0.00 0.00 0.00 65 1014.4
20260508012449 58 171 0.0 0.0 0.00 0.00 0.00 63 1014.4
20260508011946 59 173 0.0 0.0 0.00 0.00 0.00 62 1014.6
20260508011444 60 173 0.0 0.0 0.00 0.00 0.00 60 1014.4
20260508010941 60 169 0.0 0.0 0.00 0.00 0.00 59 1014.2
20260508010438 61 173 1.0 1.0 0.00 0.00 0.00 58 1014.4
20260508005935 61 179 0.0 1.0 0.00 0.00 0.00 57 1014.2
20260508005432 61 177 0.0 0.0 0.00 0.00 0.00 56 1014.3
20260508004928 62 167 0.0 1.0 0.00 0.00 0.00 56 1014.1
20260508004425 62 167 0.0 1.0 0.00 0.00 0.00 56 1014.2
20260508003921 62 181 0.0 2.0 0.00 0.00 0.00 55 1014.1
20260508003418 62 175 1.0 3.0 0.00 0.00 0.00 54 1014.4
20260508002916 63 199 2.0 5.0 0.00 0.00 0.00 54 1014.3
20260508002412 63 169 1.0 5.0 0.00 0.00 0.00 53 1014.3
20260508001908 63 159 1.0 3.0 0.00 0.00 0.00 54 1014.2
20260508001404 63 145 2.0 3.0 0.00 0.00 0.00 53 1014.3
20260508000901 64 186 2.0 5.0 0.00 0.00 0.00 52 1014.4
20260508000357 64 161 3.0 5.0 0.00 0.00 0.00 51 1014.2
20260507235854 64 131 3.0 5.0 0.00 0.00 0.00 51 1014.3
20260507235352 65 187 1.0 2.0 0.00 0.00 0.00 50 1014.6
20260507234848 65 178 1.0 3.0 0.00 0.00 0.00 49 1014.3
20260507234345 65 172 0.0 2.0 0.00 0.00 0.00 52 1014.6
20260507233841 65 185 2.0 5.0 0.00 0.00 0.00 51 1014.3
20260507233339 65 172 2.0 6.0 0.00 0.00 0.00 51 1014.6
20260507232837 66 194 3.0 6.0 0.00 0.00 0.00 50 1014.6
20260507232333 66 188 3.0 7.0 0.00 0.00 0.00 50 1014.3
20260507231831 66 220 5.0 7.0 0.00 0.00 0.00 49 1014.3
20260507231327 67 211 2.0 5.0 0.00 0.00 0.00 48 1014.4
20260507230823 67 182 1.0 7.0 0.00 0.00 0.00 50 1014.3
20260507230321 66 190 2.0 5.0 0.00 0.00 0.00 48 1014.4
20260507225821 67 179 5.0 7.0 0.00 0.00 0.00 49 1014.4
20260507225317 67 223 0.0 5.0 0.00 0.00 0.00 47 1014.7
20260507224813 66 179 4.0 6.0 0.00 0.00 0.00 49 1014.8
20260507224310 67 167 1.0 5.0 0.00 0.00 0.00 48 1014.6
20260507223806 67 167 6.0 8.0 0.00 0.00 0.00 48 1014.9
20260507223302 67 183 2.0 7.0 0.00 0.00 0.00 48 1015.0
20260507222800 67 190 3.0 6.0 0.00 0.00 0.00 50 1014.9
20260507222256 67 192 5.0 10.0 0.00 0.00 0.00 49 1015.2
20260507221753 66 277 1.0 3.0 0.00 0.00 0.00 50 1015.1
20260507221249 66 196 2.0 6.0 0.00 0.00 0.00 49 1015.2
20260507220746 67 172 3.0 7.0 0.00 0.00 0.00 50 1015.3
20260507220244 65 329 2.0 3.0 0.00 0.00 0.00 48 1015.2
20260507215740 66 162 2.0 11.0 0.00 0.00 0.00 49 1015.1
20260507215233 67 199 4.0 6.0 0.00 0.00 0.00 46 1015.1
20260507214729 67 252 5.0 9.0 0.00 0.00 0.00 48 1015.0
20260507214227 66 186 2.0 5.0 0.00 0.00 0.00 51 1015.2
20260507213722 66 175 1.0 5.0 0.00 0.00 0.00 49 1015.4
20260507213219 67 204 1.0 8.0 0.00 0.00 0.00 47 1015.3
20260507212715 66 196 4.0 7.0 0.00 0.00 0.00 46 1015.4
20260507212212 67 205 2.0 5.0 0.00 0.00 0.00 48 1015.3
20260507211709 65 191 1.0 6.0 0.00 0.00 0.00 48 1015.4
20260507211204 67 183 3.0 6.0 0.00 0.00 0.00 48 1015.4
20260507210702 67 186 1.0 3.0 0.00 0.00 0.00 51 1015.5
20260507210159 67 95 4.0 8.0 0.00 0.00 0.00 48 1015.4
20260507205655 67 190 0.0 5.0 0.00 0.00 0.00 49 1015.7
20260507205152 67 282 1.0 3.0 0.00 0.00 0.00 46 1015.5
20260507204648 67 276 3.0 7.0 0.00 0.00 0.00 46 1015.8
20260507204146 67 140 1.0 3.0 0.00 0.00 0.00 51 1015.9
20260507203644 68 193 6.0 10.0 0.00 0.00 0.00 45 1015.8
20260507203141 67 159 1.0 3.0 0.00 0.00 0.00 49 1016.0
20260507202636 67 44 1.0 3.0 0.00 0.00 0.00 46 1016.0
20260507202133 66 150 5.0 10.0 0.00 0.00 0.00 46 1016.2
20260507201628 66 152 3.0 6.0 0.00 0.00 0.00 46 1016.1
20260507201125 67 216 3.0 8.0 0.00 0.00 0.00 46 1016.5
20260507200621 67 172 5.0 7.0 0.00 0.00 0.00 46 1016.4
20260507200117 67 246 2.0 7.0 0.00 0.00 0.00 42 1016.6
20260507195615 67 203 2.0 9.0 0.00 0.00 0.00 47 1016.6
20260507195112 66 190 2.0 6.0 0.00 0.00 0.00 45 1016.4
20260507194608 65 171 4.0 7.0 0.00 0.00 0.00 45 1016.5
20260507194103 66 170 4.0 5.0 0.00 0.00 0.00 46 1016.4
20260507193601 66 164 5.0 7.0 0.00 0.00 0.00 46 1016.8
20260507193057 68 255 2.0 5.0 0.00 0.00 0.00 41 1016.6
20260507192554 67 165 4.0 6.0 0.00 0.00 0.00 47 1016.8
20260507192051 66 191 1.0 3.0 0.00 0.00 0.00 47 1016.8
20260507191546 67 178 4.0 6.0 0.00 0.00 0.00 42 1016.9
20260507191044 65 189 2.0 10.0 0.00 0.00 0.00 45 1017.0
20260507190541 66 189 3.0 5.0 0.00 0.00 0.00 44 1016.8
20260507190040 66 169 2.0 9.0 0.00 0.00 0.00 46 1016.9
20260507185538 65 208 1.0 8.0 0.00 0.00 0.00 48 1017.0
20260507185034 65 182 1.0 7.0 0.00 0.00 0.00 48 1016.7
20260507184532 65 201 4.0 7.0 0.00 0.00 0.00 47 1016.7
20260507184030 65 192 2.0 3.0 0.00 0.00 0.00 49 1017.0
20260507183525 65 200 4.0 5.0 0.00 0.00 0.00 45 1017.3
20260507183023 65 177 1.0 2.0 0.00 0.00 0.00 42 1017.0
20260507182519 64 169 4.0 7.0 0.00 0.00 0.00 43 1017.1
20260507182015 65 230 1.0 8.0 0.00 0.00 0.00 45 1017.4
20260507181512 66 121 0.0 2.0 0.00 0.00 0.00 45 1017.1
20260507181008 65 159 1.0 3.0 0.00 0.00 0.00 44 1017.4
20260507180505 64 189 2.0 7.0 0.00 0.00 0.00 46 1017.5
20260507180001 64 169 2.0 15.0 0.00 0.00 0.00 43 1017.5
20260507175458 64 196 1.0 2.0 0.00 0.00 0.00 50 1017.5
20260507174955 63 177 1.0 3.0 0.00 0.00 0.00 50 1017.7
20260507174453 64 159 5.0 7.0 0.00 0.00 0.00 46 1017.8
20260507173950 63 174 1.0 3.0 0.00 0.00 0.00 42 1017.8
20260507173447 63 171 2.0 3.0 0.00 0.00 0.00 44 1018.1
20260507172944 63 261 5.0 6.0 0.00 0.00 0.00 42 1018.2
20260507172440 62 170 3.0 3.0 0.00 0.00 0.00 47 1018.3
20260507171937 63 196 5.0 10.0 0.00 0.00 0.00 44 1018.4
20260507171432 62 179 1.0 5.0 0.00 0.00 0.00 48 1018.7
20260507170930 62 159 1.0 3.0 0.00 0.00 0.00 46 1018.6
20260507170426 62 198 2.0 5.0 0.00 0.00 0.00 45 1018.5
20260507165923 62 179 2.0 7.0 0.00 0.00 0.00 44 1018.7
20260507165419 62 188 3.0 5.0 0.00 0.00 0.00 44 1018.9
20260507164915 61 141 3.0 6.0 0.00 0.00 0.00 48 1018.8
20260507164412 61 182 5.0 7.0 0.00 0.00 0.00 48 1018.8
20260507163909 62 182 1.0 2.0 0.00 0.00 0.00 49 1018.8
20260507163407 62 159 5.0 8.0 0.00 0.00 0.00 47 1018.9
20260507162903 61 186 1.0 5.0 0.00 0.00 0.00 50 1018.9
20260507162358 62 194 3.0 5.0 0.00 0.00 0.00 51 1018.8
20260507161856 61 163 0.0 6.0 0.00 0.00 0.00 49 1018.6
20260507161352 61 214 1.0 2.0 0.00 0.00 0.00 50 1018.8
20260507160849 61 177 1.0 3.0 0.00 0.00 0.00 49 1018.8
20260507160344 61 154 3.0 3.0 0.00 0.00 0.00 46 1019.0
20260507155841 62 150 2.0 6.0 0.00 0.00 0.00 45 1019.0
20260507155336 61 85 0.0 1.0 0.00 0.00 0.00 50 1019.1
20260507154833 61 177 1.0 3.0 0.00 0.00 0.00 51 1019.1
20260507154331 59 141 1.0 5.0 0.00 0.00 0.00 50 1018.9
20260507153828 60 270 3.0 6.0 0.00 0.00 0.00 49 1019.4
20260507153324 59 208 1.0 2.0 0.00 0.00 0.00 52 1019.2
20260507152820 59 218 2.0 5.0 0.00 0.00 0.00 48 1019.3
20260507152316 60 242 1.0 3.0 0.00 0.00 0.00 51 1019.4
20260507151812 59 180 1.0 6.0 0.00 0.00 0.00 48 1019.1
20260507151309 58 214 0.0 2.0 0.00 0.00 0.00 52 1019.0
20260507150807 58 205 4.0 7.0 0.00 0.00 0.00 52 1019.1
20260507150303 58 194 2.0 5.0 0.00 0.00 0.00 50 1019.4
20260507145759 58 201 0.0 5.0 0.00 0.00 0.00 51 1018.9
20260507145256 57 183 3.0 6.0 0.00 0.00 0.00 51 1019.3
20260507144753 58 194 0.0 3.0 0.00 0.00 0.00 55 1019.0
20260507144250 57 194 3.0 5.0 0.00 0.00 0.00 53 1019.2
20260507143747 57 182 0.0 6.0 0.00 0.00 0.00 58 1019.3
20260507143244 57 190 3.0 5.0 0.00 0.00 0.00 55 1019.3
20260507142740 57 172 1.0 2.0 0.00 0.00 0.00 54 1019.5
20260507142237 56 165 3.0 5.0 0.00 0.00 0.00 53 1019.2
20260507141733 56 187 1.0 2.0 0.00 0.00 0.00 59 1019.5
20260507141230 56 175 3.0 5.0 0.00 0.00 0.00 57 1019.5
20260507140726 55 121 1.0 3.0 0.00 0.00 0.00 57 1019.5
20260507140224 55 179 2.0 6.0 0.00 0.00 0.00 57 1019.4
20260507135721 54 127 1.0 2.0 0.00 0.00 0.00 66 1019.4
20260507135218 54 170 2.0 2.0 0.00 0.00 0.00 67 1019.6
20260507134714 53 177 0.0 6.0 0.00 0.00 0.00 67 1019.4
20260507134210 53 181 2.0 3.0 0.00 0.00 0.00 66 1019.5
20260507133706 53 169 1.0 2.0 0.00 0.00 0.00 67 1019.5
20260507133204 52 165 0.0 1.0 0.00 0.00 0.00 68 1019.4
20260507132701 52 163 1.0 3.0 0.00 0.00 0.00 66 1019.5
20260507132157 51 172 2.0 2.0 0.00 0.00 0.00 67 1019.4
20260507131654 51 159 0.0 0.0 0.00 0.00 0.00 71 1019.3
20260507131152 50 165 1.0 2.0 0.00 0.00 0.00 70 1019.5
20260507130648 50 165 0.0 1.0 0.00 0.00 0.00 71 1019.5
20260507130146 49 165 0.0 1.0 0.00 0.00 0.00 74 1019.3
20260507125645 48 162 0.0 0.0 0.00 0.00 0.00 75 1019.3
20260507125142 47 161 0.0 1.0 0.00 0.00 0.00 75 1019.3
20260507124638 46 172 0.0 0.0 0.00 0.00 0.00 77 1019.3
20260507124136 46 176 1.0 2.0 0.00 0.00 0.00 76 1019.2
20260507123634 47 170 0.0 1.0 0.00 0.00 0.00 78 1019.4
20260507123131 47 173 0.0 1.0 0.00 0.00 0.00 78 1019.0
20260507122626 47 162 0.0 0.0 0.00 0.00 0.00 79 1019.2
20260507122121 47 161 0.0 0.0 0.00 0.00 0.00 81 1019.2
20260507121618 45 164 0.0 0.0 0.00 0.00 0.00 84 1019.1
20260507121113 44 153 0.0 0.0 0.00 0.00 0.00 86 1019.2
20260507120609 42 164 0.0 1.0 0.00 0.00 0.00 88 1019.1
20260507120106 42 173 0.0 0.0 0.00 0.00 0.00 90 1018.9
20260507115603 42 171 0.0 0.0 0.00 0.00 0.00 91 1019.1
20260507115059 42 170 0.0 0.0 0.00 0.00 0.00 91 1019.1
20260507114554 42 170 0.0 0.0 0.00 0.00 0.00 92 1019.0
20260507114052 42 170 0.0 0.0 0.00 0.00 0.00 93 1019.1
20260507113549 42 170 0.0 0.0 0.00 0.00 0.00 93 1018.8
20260507113046 41 161 0.0 0.0 0.00 0.00 0.00 93 1018.8
20260507112544 41 161 0.0 0.0 0.00 0.00 0.00 93 1018.7
20260507112040 41 161 0.0 0.0 0.00 0.00 0.00 94 1018.4
20260507111538 41 161 0.0 0.0 0.00 0.00 0.00 94 1018.6
20260507111034 41 161 0.0 0.0 0.00 0.00 0.00 93 1018.2
20260507110531 41 161 0.0 0.0 0.00 0.00 0.00 93 1018.5
20260507110027 41 161 0.0 0.0 0.00 0.00 0.00 92 1018.4
20260507105524 41 161 0.0 0.0 0.00 0.00 0.00 92 1018.6
20260507105020 41 161 0.0 0.0 0.00 0.00 0.00 92 1018.4
20260507104518 42 161 0.0 0.0 0.00 0.00 0.00 92 1018.7
20260507104015 42 161 0.0 0.0 0.00 0.00 0.00 93 1018.4
20260507103510 42 161 0.0 0.0 0.00 0.00 0.00 93 1018.4
20260507103007 41 161 0.0 0.0 0.00 0.00 0.00 94 1018.5
20260507102504 41 161 0.0 0.0 0.00 0.00 0.00 94 1018.7
20260507102000 41 161 0.0 0.0 0.00 0.00 0.00 94 1018.6
20260507101455 41 161 0.0 0.0 0.00 0.00 0.00 94 1018.4
20260507100952 41 160 0.0 0.0 0.00 0.00 0.00 95 1018.5
20260507100449 40 160 0.0 0.0 0.00 0.00 0.00 95 1018.3
20260507095947 40 161 0.0 0.0 0.00 0.00 0.00 95 1018.3
20260507095445 40 161 0.0 0.0 0.00 0.00 0.00 96 1018.4
20260507094941 39 161 0.0 0.0 0.00 0.00 0.00 96 1018.6
20260507094437 39 153 0.0 0.0 0.00 0.00 0.00 97 1018.9
20260507093934 39 152 0.0 0.0 0.00 0.00 0.00 97 1018.7
20260507093432 39 152 0.0 0.0 0.00 0.00 0.00 97 1018.6
20260507092931 38 151 0.0 0.0 0.00 0.00 0.00 97 1018.7
20260507092426 37 150 0.0 0.0 0.00 0.00 0.00 96 1018.5
20260507091923 37 150 0.0 0.0 0.00 0.00 0.00 96 1018.8
20260507091420 38 150 0.0 0.0 0.00 0.00 0.00 96 1018.6
20260507090915 37 150 0.0 0.0 0.00 0.00 0.00 96 1018.6
20260507090412 37 150 0.0 0.0 0.00 0.00 0.00 96 1018.4
20260507085909 37 150 0.0 0.0 0.00 0.00 0.00 96 1018.5
20260507085406 38 150 0.0 0.0 0.00 0.00 0.00 96 1018.5
20260507084903 38 150 0.0 0.0 0.00 0.00 0.00 96 1018.3
20260507084359 38 150 0.0 0.0 0.00 0.00 0.00 96 1018.4
20260507083857 38 150 0.0 0.0 0.00 0.00 0.00 95 1018.3
20260507083353 38 150 0.0 0.0 0.00 0.00 0.00 95 1018.2
20260507082849 38 150 0.0 0.0 0.00 0.00 0.00 95 1018.3
20260507082345 38 150 0.0 0.0 0.00 0.00 0.00 95 1018.4
20260507081843 39 150 0.0 0.0 0.00 0.00 0.00 95 1018.1
20260507081338 39 150 0.0 0.0 0.00 0.00 0.00 95 1018.4
20260507080836 39 150 0.0 0.0 0.00 0.00 0.00 95 1018.4
20260507080331 39 150 0.0 0.0 0.00 0.00 0.00 95 1018.3
20260507075827 39 150 0.0 0.0 0.00 0.00 0.00 94 1018.3
20260507075323 39 150 0.0 0.0 0.00 0.00 0.00 94 1018.5
20260507074820 39 150 0.0 0.0 0.00 0.00 0.00 93 1018.5
20260507074317 39 150 0.0 0.0 0.00 0.00 0.00 93 1018.5
20260507073814 39 150 0.0 0.0 0.00 0.00 0.00 93 1018.6
20260507073311 39 150 0.0 0.0 0.00 0.00 0.00 92 1018.6
20260507072808 39 150 0.0 0.0 0.00 0.00 0.00 92 1018.7
20260507072307 39 150 0.0 0.0 0.00 0.00 0.00 92 1018.6
20260507071803 40 150 0.0 0.0 0.00 0.00 0.00 91 1019.0
20260507071259 40 150 0.0 0.0 0.00 0.00 0.00 92 1018.7
20260507070756 40 150 0.0 0.0 0.00 0.00 0.00 91 1018.8
20260507070253 40 150 0.0 0.0 0.00 0.00 0.00 91 1018.9
20260507065750 40 150 0.0 0.0 0.00 0.00 0.00 91 1019.2
20260507065247 40 150 0.0 0.0 0.00 0.00 0.00 91 1019.0
20260507064744 40 150 0.0 0.0 0.00 0.00 0.00 90 1018.9
20260507064243 40 150 0.0 0.0 0.00 0.00 0.00 89 1018.9
20260507063740 40 150 0.0 0.0 0.00 0.00 0.00 88 1019.0
20260507063236 40 150 0.0 0.0 0.00 0.00 0.00 88 1018.9
20260507062733 41 150 0.0 0.0 0.00 0.00 0.00 87 1019.0
20260507062231 41 150 0.0 0.0 0.00 0.00 0.00 86 1018.8
20260507061729 41 150 0.0 0.0 0.00 0.00 0.00 86 1018.8
20260507061227 41 150 0.0 0.0 0.00 0.00 0.00 85 1018.9
20260507060724 42 150 0.0 0.0 0.00 0.00 0.00 84 1018.8
20260507060221 42 150 0.0 0.0 0.00 0.00 0.00 84 1019.0
20260507055716 42 150 0.0 0.0 0.00 0.00 0.00 83 1018.9
20260507055212 42 150 0.0 0.0 0.00 0.00 0.00 83 1019.0
20260507054709 42 150 0.0 0.0 0.00 0.00 0.00 81 1018.9
20260507054206 43 150 0.0 0.0 0.00 0.00 0.00 81 1019.0
20260507053703 43 150 0.0 0.0 0.00 0.00 0.00 81 1018.9
20260507053201 43 150 0.0 0.0 0.00 0.00 0.00 80 1019.1
20260507052700 43 150 0.0 0.0 0.00 0.00 0.00 80 1018.8
20260507052155 44 150 0.0 0.0 0.00 0.00 0.00 79 1019.0
20260507051653 44 150 0.0 0.0 0.00 0.00 0.00 77 1019.0
20260507051149 44 150 0.0 0.0 0.00 0.00 0.00 77 1018.7
20260507050647 44 150 0.0 0.0 0.00 0.00 0.00 76 1018.7
20260507050143 44 150 0.0 0.0 0.00 0.00 0.00 76 1018.5
20260507045640 45 150 0.0 0.0 0.00 0.00 0.00 75 1018.7
20260507045137 45 150 0.0 0.0 0.00 0.00 0.00 74 1018.6
20260507044634 46 150 0.0 0.0 0.00 0.00 0.00 73 1018.5
20260507044126 46 150 0.0 0.0 0.00 0.00 0.00 72 1018.8
20260507043621 47 148 0.0 0.0 0.00 0.00 0.00 71 1018.7
20260507043119 47 144 0.0 0.0 0.00 0.00 0.00 69 1018.7
20260507042614 48 146 0.0 0.0 0.00 0.00 0.00 69 1018.6
20260507042109 48 128 1.0 1.0 0.00 0.00 0.00 68 1018.5
20260507041606 48 143 0.0 1.0 0.00 0.00 0.00 68 1018.7
20260507041103 48 139 0.0 1.0 0.00 0.00 0.00 69 1018.6
20260507040600 48 115 1.0 1.0 0.00 0.00 0.00 71 1018.5
20260507040056 47 153 0.0 0.0 0.00 0.00 0.00 73 1018.7
20260507035552 47 154 0.0 0.0 0.00 0.00 0.00 73 1018.6
20260507035049 47 154 0.0 0.0 0.00 0.00 0.00 72 1018.4
20260507034545 48 154 0.0 0.0 0.00 0.00 0.00 70 1018.3
20260507034043 48 154 0.0 0.0 0.00 0.00 0.00 69 1018.4
20260507033541 48 154 0.0 0.0 0.00 0.00 0.00 68 1018.5
20260507033038 49 154 0.0 0.0 0.00 0.00 0.00 67 1018.4
20260507032535 50 154 0.0 0.0 0.00 0.00 0.00 66 1018.3
20260507032031 50 147 0.0 0.0 0.00 0.00 0.00 64 1018.4
20260507031527 50 149 0.0 1.0 0.00 0.00 0.00 64 1018.2
20260507031025 51 153 0.0 0.0 0.00 0.00 0.00 63 1018.3
20260507030522 51 134 0.0 1.0 0.00 0.00 0.00 63 1018.2
20260507030020 51 135 0.0 1.0 0.00 0.00 0.00 63 1018.0
20260507025516 51 150 0.0 0.0 0.00 0.00 0.00 63 1017.9